STAR ONE D1

Last updated on Sat Apr 13 2024 01:02:39 GMT+0100 (British Summer Time)

1 41904U 16082B 24103.50410218 -.00000219 00000+0 00000+0 0 9997 2 41904 0.0144 256.7054 0002517 122.0439 279.9173 1.00273004 26793
UTC large
Height (km)
Speed (km/s)
/
Latitude / Longitude
Inclination (degrees)
Orbital Period (minutes)
Azimuth
Elevation
Range (km)
Doppler Factor

Next 0 passes for location: London (51.5072 / 0.1276)

Sorry there are no passes over London.